Regional Weather Roundup
Issued by NWS Kansas City/Pleasant Hill, MO

Home | Current Version | Previous Version | Graphics & Text | Print | Product List | Glossary Off
Versions: 1 2 3 4 5 6 7 8 9 10 11 12 13 14 15 16 17 18 19 20 21 22 23 24 25 26 27 28 29 30 31 32 33 34 35 36 37 38 39 40 41 42 43 44 45 46 47 48 49 50

000
ASUS43 KEAX 171904
RWREAX

WEATHER ROUNDUP FOR EASTERN KANSAS AND NORTHWEST MISSOURI
NATIONAL WEATHER SERVICE KANSAS CITY/PLEASANT HILL MO
100 PM CST WED DEC 17 2014

KSZ040-057-103>105-MOZ028-029-037-043-172000-
...KANSAS CITY METROPOLITAN AREA...

CITY           SKY/WX    TMP DP  RH WIND       PRES   REMARKS
K.C. INTL      CLOUDY    28  19  69 CALM      30.29F
K.C. DOWNTOWN  CLOUDY    30  19  63 CALM      30.31F
LEES SUMMIT    CLOUDY    29  19  66 CALM      30.30F
OLATHE - IXD   FLURRIES  28  23  81 VRB3      30.28F
OLATHE - OJC   CLOUDY    28  22  78 E3        30.27F
LAWRENCE       CLOUDY    28  20  71 E3        30.30F

$$

MOZ001>008-011>017-020>025-030>033-038>040-044>046-053-054-172000-
...NORTHERN AND CENTRAL MISSOURI...

CITY           SKY/WX    TMP DP  RH WIND       PRES   REMARKS
ST. JOSEPH     CLOUDY    28  19  69 N3        30.31F
MOSBY            N/A     30  21  69 CALM      30.31F
WARRENSBURG    CLOUDY    30  21  69 CALM      30.30F
WHITEMAN AFB   PTSUNNY   30  20  65 VRB2      30.30F
CLINTON        CLOUDY    32  23  69 CALM      30.31F
SEDALIA        PTSUNNY   32  21  64 N5        30.30F WCI  27
WARSAW         NOT AVBL
MARSHALL       MOSUNNY   34  25  69 N8        30.32F WCI  27
CHILLICOTHE      N/A     27  20  75 SW3       30.34R
MOBERLY        MOSUNNY   32  21  64 CALM      30.30F
KIRKSVILLE     SUNNY     28  20  71 VRB3      30.29F

$$

MOZ041-047>049-056>058-063>065-088>090-097-172000-
...EASTERN AND SOUTHERN MISSOURI...

CITY           SKY/WX    TMP DP  RH WIND       PRES   REMARKS
ST. LOUIS INTL MOSUNNY   38  24  57 N7        30.28F WCI  33
SPIRIT OF STL  SUNNY     38  24  57 CALM      30.27F
COLUMBIA       SUNNY     33  22  63 W8        30.29R WCI  26
JEFFERSON CITY MOSUNNY   35  21  56 W8        30.31R WCI  29
MEXICO         SUNNY     34  28  80 CALM      30.29F
HANNIBAL       CLOUDY    30  19  64 NW3       30.30F
ROLLA          MOSUNNY   34  22  61 W9        30.26R WCI  27
LEBANON        PTSUNNY   34  25  69 CALM      30.27F
OSAGE BEACH    CLOUDY    34  19  55 N3        30.29F
SPRINGFIELD    CLOUDY    32  25  75 VRB3      30.27F
BRANSON        CLOUDY    37  27  65 CALM      30.27F
JOPLIN         CLOUDY    32  26  78 E7        30.28F WCI  26
WEST PLAINS    CLOUDY    38  25  59 SW5       30.26F WCI  34

$$

IAZ060-094-KSZ022-034>040-054-083-096-NEZ052-066-093-172000-
...KANSAS...SOUTHEAST NEBRASKA AND IOWA...

CITY           SKY/WX    TMP DP  RH WIND       PRES   REMARKS
TOPEKA         CLOUDY    28  19  69 E3        30.30F
MANHATTAN      CLOUDY    27  19  72 NE6       30.28F WCI  20
EMPORIA        CLOUDY    28  24  85 SE7       30.25F WCI  21
CHANUTE        CLOUDY    31  26  82 SE7       30.26F WCI  24
WICHITA        CLOUDY    34  24  67 E8        30.20F WCI  27
OMAHA          PTSUNNY   26  15  63 NW5       30.32F WCI  20
LINCOLN        CLOUDY    25  15  66 NE3       30.29F
FALLS CITY     CLOUDY    27  17  66 E5        30.30F WCI  22
LAMONI         MOSUNNY   28  16  60 N8        30.27F WCI  20
DES MOINES     PTSUNNY   28  13  53 NW8       30.30F WCI  20

$$



USA.gov is the U.S. government's official web portal to all federal, state and local government web resources and services.